CZ-3B DEB, 41119

Orbit data source: Space-Track

CZ-3B DEB, 41119 is space debris in HEO originally from a launch on Mon, 19 Dec 2011 UTC launched from the Xichang Space Center, China (XSC). Debris objects in space refer to the collection of defunct objects orbiting the Earth. Examples of debris include non-operational satellites, rocket bodies, and fragments generated from explosions, collisions, or faulty payload assembly.

Loading next visibility...
Identifier
41119, 2011-077AJ
Orbit
HEO
Last TLE update
2 days ago
Origin
Manufacturer
CALT
Mission
Spacecraft
Bus & Motor
Unknown
Mass
Unknown
Launch date (UTC)
2011-12-19 (13 years ago)
Launch vehicle
Unknown
Launch site
Xichang Space Center, China (XSC)
Object type
Payload
Rocket body
Debris
Shape & HBR
Unknown
Radar Cross Section
Medium (>0.1 m² and <1 m²)

Expand to show TLE details & history

TLE from 2 days ago
0 CZ-3B DEB
1 41119U 11077AJ  25127.23533408 -.00000143  00000-0  00000-0 0  9996
2 41119  21.2769  77.3576 7268620 114.9920 333.6230  1.69770579 64109
Epoch: 2025-05-07T05:38Z
Definitive object data (Epoch: 2025-05-07T05:38:52.864Z)
Latitude
0.00001°
Longitude
127.21583°
Altitude
13,847.193 km
Speed
5.098 km/s
True Right ascension
05h 09m 02s
True Declination
0° 00' 00"
Sunlit
Object was in daylight at TLE epoch
Visualization TLE readout
Latitude
-20.91309°
Longitude
48.34191°
Altitude
40,557.227 km
Speed
1.886 km/s
Apparent Right ascension
00h 05m 08s
Apparent Declination
-23° 22' 13"
Sunlit
Object is in daylight
Visualization observer readout
Local Sidereal Time
13:52:48
Azimuth
61.999° ENE
Elevation
-61.923°
Doppler factor
1
Orbital elements
Apogee altitude
44,885.007 km
Perigee altitude
1,730.162 km
Semi-major axis
29,685.721 km
Eccentricity
0.726862
Inclination
21.2769°
RAAN
77.3576°
Arg. of periapsis
114.992°
True anomaly
245.23542°
Mean anomaly
333.623°
Eccentric anomaly
296.28203°
Mean motion
0.42435 °/min
BSTAR
Unknown
Orbital period
848.36 mins
Loading maneuver chart data...
Loading SW <> Apogee altitude chart data...
Loading historical data...
Loading historical data...
Loading historical data...
Loading historical data...
Loading historical data...
Loading historical data...
Loading historical data...

CZ-3B DEB Visibility forecast

Observer location: undefined°, undefined°

Span
Click to sort rows by Start time (UTC) header in descending order
Start Az.
Max El. time (UTC)
Max El. Az.
Max El.
End time (UTC)
End Az.
12 mins2025-05-10 05:18:05.273Z238.349° WSW2025-05-10 05:24:05.273Z189.35° SSW19.126°2025-05-10 05:30:05.273Z146.171° SSE
|